SB KEPS @ AMSAT $ORB10090.N 2Line Orbital Elements 10090.AMSAT
HR AMSAT ORBITAL ELEMENTS FOR AMATEUR SATELLITES IN NASA FORMAT FROM WA5QGD FORT WORTH,TX March 31, 2010 Send Subscribe/unsubscribe to KEPS at http://www.amsat.org/mailman/listinfo/keps BID: ORB10090.N
DECODE 2-LINE ELSETS WITH THE FOLLOWING KEY: 1 AAAAAU 00 0 0 BBBBB.BBBBBBBB .CCCCCCCC 00000-0 00000-0 0 DDDZ 2 AAAAA EEE.EEEE FFF.FFFF GGGGGGG HHH.HHHH III.IIII JJ.JJJJJJJJKKKKKZ KEY: A-CATALOGNUM B-EPOCHTIME C-DECAY D-ELSETNUM E-INCLINATION F-RAAN G-ECCENTRICITY H-ARGPERIGEE I-MNANOM J-MNMOTION K-ORBITNUM Z-CHECKSUM
TO ALL RADIO AMATEURS BT
AO-07 1 07530U 74089B 10090.63101546 -.00000027 00000-0 10000-3 0 7407 2 07530 101.4061 109.4965 0012177 065.9704 294.2641 12.53578014618732 FO-29 1 24278U 96046B 10090.15859163 .00000017 00000-0 55961-4 0 2751 2 24278 098.5198 290.0601 0350651 326.4368 031.4987 13.52949106672552 SO-33 1 25509U 98061B 10090.39677753 -.00000018 00000-0 -16018-4 0 6800 2 25509 031.4333 228.4154 0354317 329.5777 028.4713 14.28296444596929 RS-22 1 27939U 03042A 10090.65564316 .00000162 00000-0 40035-4 0 463 2 27939 097.9039 319.3845 0012796 308.6046 051.4014 14.63398133347611 VO-52 1 28650U 05017B 10090.33912163 .00000520 00000-0 72046-4 0 4683 2 28650 097.7008 146.7804 0027555 168.7973 191.3829 14.81712551265167 SO-67 1 35870U 09049F 10090.78234902 .00000993 00000-0 45904-4 0 5870 2 35870 097.3400 141.8679 0008336 338.2473 168.0253 15.22425665 29682 HO-68 1 36122U 09072B 10090.79586644 -.00000045 00000-0 00000 0 0 1701 2 36122 100.4772 151.9856 0007566 149.9962 210.1582 13.16280218 14035 UO-11 1 14781U 84021B 10090.80282732 .00000058 00000-0 14860-4 0 2087 2 14781 098.0642 142.2765 0010035 125.0043 235.2038 14.79783543400360 AO-16 1 20439U 90005D 10090.06368101 .00000039 00000-0 30174-4 0 8582 2 20439 098.3237 051.0784 0011718 042.0266 318.1822 14.31854414 54206 LO-19 1 20442U 90005G 10090.42332419 -.00000017 00000-0 90353-5 0 7693 2 20442 098.2848 057.5411 0012569 036.5046 323.7021 14.32086570 54422 AO-27 1 22825U 93061C 10090.37808825 .00000061 00000-0 40543-4 0 4924 2 22825 098.4780 040.3694 0009108 134.3170 225.8769 14.29291784860932 IO-26 1 22826U 93061D 10090.03749591 .00000028 00000-0 27502-4 0 2293 2 22826 098.4718 040.6698 0009535 130.2254 229.9775 14.29546549860993 GO-32 1 25397U 98043D 10089.99151310 .00000117 00000-0 69861-4 0 1486 2 25397 098.3160 101.7443 0002178 115.1131 245.0303 14.23175002608923 NO-44 1 26931U 01043C 10090.40775090 -.00000226 00000-0 -55975-4 0 4229 2 26931 067.0512 044.3645 0006344 263.7410 096.2960 14.29588219443631 SO-50 1 27607U 02058C 10089.92259065 .00000176 00000-0 49686-4 0 1389 2 27607 064.5571 234.2312 0035927 113.7058 246.7817 14.71518708390863 CO-55 1 27844U 03031E 10090.20250752 .00000098 00000-0 65796-4 0 8145 2 27844 098.7124 100.2931 0010648 039.7649 320.4320 14.20694930350012 CO-57 1 27848U 03031J 10090.00942843 .00000049 00000-0 43209-4 0 7641 2 27848 098.7167 099.1857 0010579 045.1519 315.0523 14.20488735349945 AO-51 1 28375U 04025K 10089.52883443 .00000047 00000-0 26898-4 0 6390 2 28375 098.0597 087.5153 0084483 336.8298 022.9097 14.40676456302186 GENESAT1 1 29655U 06058C 10090.52292747 .00064755 00000-0 34440-3 0 9944 2 29655 040.0193 170.6132 0005065 121.7216 238.4088 15.79447428187653 CP3 1 31129U 07012N 10090.08389430 .00000232 00000-0 63633-4 0 5416 2 31129 097.9489 133.8038 0103681 115.8983 245.2947 14.52230564156528 CO-65 1 32785U 08021C 10090.63584317 .00000519 00000-0 72621-4 0 6425 2 32785 097.9035 156.6105 0015233 172.9180 187.2223 14.81616703104003 KKS-1 1 33493U 09002B 10090.82560922 .00000681 00000-0 94872-4 0 3440 2 33493 098.0749 209.7024 0020713 034.9182 325.3396 14.80917782 64036 SOHLA-1 1 33496U 09002E 10089.92354133 -.00000012 00000-0 62193-5 0 647 2 33496 098.0498 200.0457 0007760 092.9793 267.2296 14.69480005 63383 NOAA-10 1 16969U 86073A 10090.20568451 -.00000094 00000-0 -20258-4 0 106 2 16969 098.6644 119.8803 0013245 080.7530 279.5164 14.27410492224453 NOAA-11 1 19531U 88089A 10090.31266795 -.00000022 00000-0 10962-4 0 258 2 19531 098.7680 180.6637 0011989 013.7378 346.4141 14.14918583110129 NOAA-12 1 21263U 91032A 10090.37664408 .00000068 00000-0 47423-4 0 5104 2 21263 098.7690 103.5372 0013039 036.4578 323.7488 14.25625069981312 MET-3/5 1 21655U 91056A 10090.23613236 .00000051 00000-0 10000-3 0 7747 2 21655 082.5624 003.7089 0013350 178.4272 181.6814 13.17023702895410 MET-2/21 1 22782U 93055A 10090.33742219 .00000023 00000-0 77936-5 0 7354 2 22782 082.5481 314.2170 0020826 261.1298 098.7509 13.83643028837314 OKEAN-4 1 23317U 94066A 10090.11104678 .00000325 00000-0 37063-4 0 1927 2 23317 082.5373 066.7274 0023346 135.7046 224.6036 14.82788720834883 NOAA-14 1 23455U 94089A 10090.36412127 -.00000015 00000-0 15660-4 0 29 2 23455 098.8800 171.6404 0010296 095.4992 264.7345 14.13781807786500 NOAA-15 1 25338U 98030A 10090.34576899 .00000200 00000-0 10424-3 0 3228 2 25338 098.6142 078.6868 0009802 305.5153 054.5119 14.24815829617662 RESURS 1 25394U 98043A 10090.08373859 .00000019 00000-0 25918-4 0 4668 2 25394 098.3112 112.3969 0002437 087.6234 272.5231 14.24196775609234 FENGYUN1 1 25730U 99025A 10089.93578818 .00000642 00000-0 40025-3 0 75 2 25730 098.7814 056.9383 0024167 126.0380 234.2992 14.08206132560672 OKEAN-0 1 25860U 99039A 10090.39845907 .00000104 00000-0 23359-4 0 9537 2 25860 097.8246 065.7735 0001211 049.2273 310.9039 14.73626496575442 NOAA-16 1 26536U 00055A 10090.38123681 .00000296 00000-0 18546-3 0 7985 2 26536 099.1743 106.0017 0010440 191.3715 168.7258 14.12552864490848 NOAA-17 1 27453U 02032A 10090.43233288 .00000100 00000-0 61404-4 0 8046 2 27453 098.4402 143.9757 0011897 009.9292 350.2122 14.24144119403635 NOAA-18 1 28654U 05018A 10090.38849184 .00000142 00000-0 10299-3 0 2886 2 28654 098.9430 036.9033 0013513 273.7457 086.2167 14.11342353250466 NOAA-19 1 33591U 09005A 10090.35964036 -.00000199 00000-0 -86888-4 0 4876 2 33591 098.7825 034.1594 0014480 146.2198 213.9899 14.11036980 58935 HUBBLE 1 20580U 90037B 10089.98482348 .00000607 00000-0 33695-4 0 5425 2 20580 028.4701 030.3706 0003544 093.0753 267.0268 15.00934738892999 ISS 1 25544U 98067A 10090.87180706 .00021517 00000-0 15098-3 0 8819 2 25544 051.6441 267.5162 0006494 125.0176 029.9676 15.74110583651294 CO-58 1 28895U 05043F 10089.70952284 .00000037 00000-0 17096-4 0 5486 2 28895 098.0261 336.7402 0018122 167.7609 192.4023 14.59865790235538 FALCON 1 30776U 07006E 10090.19522625 .00001006 00000-0 75248-4 0 7960 2 30776 035.4328 157.7646 0001341 272.5616 087.4947 15.03557760168311 MAST 1 31126U 07012K 10089.74863598 -.00000076 00000-0 -69621-5 0 8297 2 31126 097.9455 135.7831 0095854 109.7464 251.4107 14.53567513156668 CAPE1 1 31130U 07012P 10090.13761218 .00000210 00000-0 58601-4 0 8500 2 31130 097.9485 133.7183 0103883 115.9856 245.2143 14.52153784156335 COMPASS 1 32787U 08021E 10090.31321154 .00000421 00000-0 59879-4 0 6332 2 32787 097.9003 156.1190 0015859 175.0342 185.1020 14.81807145103965 AAUSAT2 1 32788U 08021F 10089.91856669 .00000030 00000-0 10552-4 0 6275 2 32788 097.9063 155.8429 0015956 175.7947 184.3383 14.81942520103914 DO-64 1 32789U 08021G 10090.33905781 .00000944 00000-0 12535-3 0 6438 2 32789 097.9075 156.6456 0016204 173.9957 186.1468 14.82041782103976 CO-66 1 32791U 08021J 10089.71626988 .00000206 00000-0 32942-4 0 6234 2 32791 097.9024 155.5535 0015743 175.6047 184.5286 14.81603640103836 RS-30 1 32953U 08025A 10090.45695183 .00000010 00000-0 00000 0 0 5613 2 32953 082.4967 078.0121 0017343 273.6152 086.2954 12.43004618 84086 TACSAT-3 1 35001U 09028A 10090.10718089 .00006680 00000-0 16279-3 0 2500 2 35001 040.4576 322.8731 0020329 142.3977 217.8263 15.40954274 48587 PHARMSAT 1 35002U 09028B 10090.02455349 .00006177 00000-0 14774-3 0 2373 2 35002 040.4712 321.6711 0023349 145.3305 214.9038 15.41548974 48583 HAWKSAT1 1 35003U 09028C 10090.84848311 .00011983 00000-0 26060-3 0 2528 2 35003 040.4639 313.5267 0021735 162.2466 197.9067 15.43826248 48757 CP6 1 35004U 09028D 10089.84602553 .00014385 00000-0 30656-3 0 2449 2 35004 040.4633 319.1301 0020544 156.5817 203.5878 15.44339136 48598 AEROCUB3 1 35005U 09028E 10090.86157126 .00029500 00000-0 57967-3 0 2613 2 35005 040.4773 313.0800 0018262 168.4213 191.7004 15.46435179 48750 DRAGNSAT 1 35690U 09038B 10076.22711312 .05715194 12509-4 31481-3 0 3162 2 35690 051.6170 315.4586 0004999 310.9891 057.3269 16.42150010 36561 POLLUX 1 35693U 09038E 10087.99866888 .23496735 12787-4 17715-3 0 3529 2 35693 051.6099 254.5746 0006270 294.4866 097.5899 16.52338462 38395 CASTOR 1 35694U 09038F 10090.86272591 .00051595 12168-4 16479-3 0 2492 2 35694 051.6379 250.8722 0003444 258.7590 101.3029 15.91622703 38707 METEOR-M 1 35865U 09049A 10090.65505578 .00000176 00000-0 10000-3 0 1631 2 35865 098.7679 144.9777 0001614 222.6701 137.4307 14.21829321 27700 RS-38 1 35869U 09049E 10090.77551285 .00000176 00000-0 10000-3 0 1667 2 35869 098.7661 145.1231 0003938 223.2140 136.8684 14.21978195 27725 /EX
participants (1)
-
Ray Hoad